Location: Prague
(50.0830°N, 14.4670°E)
Time: 21:57:41
(UTC+01:00)

HuskySat-1 - Pass Details

Date: 05 December 2021
Orbit: 439 x 453 km, 51.6° (Epoch: 25 January)

Event Time Altitude Azimuth Distance (km) Brightness Sun altitude
Rises 17:27:24 0° 230° (SW) 2,467 ? -13.1°
Reaches altitude 10° 17:29:36 10° 224° (SW) 1,594 ? -13.5°
Maximum altitude 17:33:01 44° 151° (SSE) 643 ? -14.0°
Enters shadow 17:34:41 25° 94° (E) 952 ? -14.2°
